COSMOS 2251 DEB, 35717

Orbit data source: Space-Track

COSMOS 2251 DEB, 35717 is space debris in LEO originally from a launch on Wed, 16 Jun 1993 UTC launched from the Plesetsk Missile And Space Complex (PKMTR). The debris from Iridium 33, an American commercial communications satellite, has been tracked extensively since its accidental collision with the defunct Russian satellite Cosmos 2251 in 2009. This event, occurring at high speed in low Earth orbit (LEO), generated thousands of pieces of space debris, significantly increasing the risk of further collisions. The Iridium 33 debris cloud has impacted space traffic management and orbital debris mitigation strategies, making it a subject of ongoing study in space situational awareness.

Loading next visibility...
Identifier
35717, 1993-036AQN
Orbit
LEO
Country
Flag of CISCIS
Related business
Manufacturer
Unknown
Mission
Spacecraft
Bus & Motor
Unknown
Mass
Unknown
Launch date (UTC)
1993-06-16 (33 years ago)
Launch vehicle
Unknown
Launch site
Plesetsk Missile And Space Complex (PKMTR)
Object type
Payload
Rocket body
Debris
Shape & HBR
Unknown shape, 0.1 m
Radar Cross Section
Small (<0.1 m²)

Expand to show TLE details & history
Last TLE update: 3 days ago

TLE from 3 days ago
0 COSMOS 2251 DEB
1 35717U 93036AQN 26165.48549635  .00002368  00000-0  73618-3 0  9995
2 35717  74.1615 240.9334 0076544  47.0516 313.7025 14.39856539767434
Epoch: 2026-06-14T11:39Z
TLE epoch observation values (Epoch: 2026-06-14T11:39:06.884Z)
Latitude
-0.00005°
Longitude
163.36915°
Altitude
724.065 km
Speed
7.513 km/s
True Right ascension
16h 03m 44s
True Declination
0° 00' 00"
Sunlit
Object was in full shadow at epoch
Visualization orbit readout
Latitude
Unknown
Longitude
Unknown
Altitude
Unknown
Speed
Unknown
Apparent Right ascension
Unknown
Apparent Declination
Unknown
Sunlit
N/A
Visualization observer readout
Local Sidereal Time
21:19:33
Azimuth
Unknown
Elevation
Unknown
Doppler factor
Unknown
Orbital elements
Apogee altitude
811.193 km
Perigee altitude
701.969 km
Semi-major axis
7,134.718 km
Eccentricity
0.00765
Inclination
74.1615°
RAAN
240.9334°
Arg. of periapsis
47.0516°
True anomaly
313.06419°
Mean anomaly
313.7025°
Eccentric anomaly
313.38376°
Mean motion
3.60145 °/min
Orbital period
99.96 mins
BSTAR
0.00073618
Loading maneuver chart data...
Computing Atmospheric mass density...

Documentation

Showing up to 5 results
|